Flight Track Log - Related Links

Times and Time Zones

All times are in EDT time to prevent confusion due to time zone crossing. See the N738GJ flight status page for this flight to view local times or setup timezone preferences in your user account.

Time Position Orientation Groundspeed Altitude Reporting Facility
EDT Latitude Longitude Course Direction KTS MPH feet Rate Location/Type
Fri 02:21:00 PM 32.5983 -95.8647 290° West 122 140 2,400  Level Fort Worth Center
Fri 02:22:00 PM 32.6114 -95.8967 296° West 122 140 2,500 50 Climbing Fort Worth Center
Fri 02:23:00 PM 32.6222 -95.9408 286° West 127 146 2,500  Level Fort Worth Center
Fri 02:24:00 PM 32.6331 -95.9778 289° West 127 146 2,500 -50 Level Fort Worth Center
Fri 02:25:00 PM 32.6461 -96.0144 293° West 127 146 2,400  Descending Fort Worth Center
Fri 02:26:00 PM 32.6569 -96.0489 290° West 127 146 2,500 1,050 Climbing Fort Worth Center
Fri 02:27:00 PM 32.6700 -96.0906 290° West 127 146 4,500  Climbing Fort Worth Center
Fri 02:28:00 PM 32.6828 -96.1275 292° West 127 146 2,500 -1,000 Descending Fort Worth Center
Fri 02:29:00 PM 32.6872 -96.1669 278° West 127 146 2,500  Level Fort Worth Center
Fri 02:30:00 PM 32.6981 -96.2039 289° West 122 140 2,500  Level Fort Worth Center
Fri 02:31:00 PM 32.7028 -96.2433 278° West 122 140 2,500 -50 Level Fort Worth Center
Fri 02:32:00 PM 32.7133 -96.2778 290° West 122 140 2,400 -50 Descending Fort Worth Center
Fri 02:33:00 PM 32.7222 -96.3194 284° West 122 140 2,400 -50 Level Fort Worth Center
Fri 02:34:00 PM 32.7244 -96.3542 274° West 122 140 2,300 -50 Descending Fort Worth Center
Fri 02:35:00 PM 32.7311 -96.4008 280° West 122 140 2,300 1,100 Level Fort Worth Center
Fri 02:36:00 PM 32.7400 -96.4453 283° West 122 140 4,500 1,100 Climbing Fort Worth Center
Fri 02:37:00 PM 32.7506 -96.4872 287° West 122 140 4,500  Level Fort Worth Center
Fri 02:38:00 PM 32.7614 -96.5314 286° West 122 140 4,500  Level Fort Worth Center
Fri 02:39:00 PM 32.7636 -96.5389 289° West 122 140 4,500  Level Fort Worth Center
Fri 02:40:00 PM 32.7636 -96.5389 40° Northeast 122 140 4,500  Level Fort Worth Center
Fri 02:42:00 PM 32.7636 -96.5389 40° Northeast 122 140 4,500  Level Fort Worth Center
Fri 02:44:00 PM 32.7636 -96.5389 40° Northeast 122 140 4,500  Level Fort Worth Center

Login

Don't have an account? Register now (free) for customized features, flight alerts, and more!